INFORMACIÓN METAR y TAF
METAR FOR GCGM
ADDS - METARS form results

(0841 UTC 25 April 2017)
Data provider http://aviationweather.gov/adds/metars/
 
METAR text: GCGM 250830Z VRB02KT 9999 SCT025 19/15 Q1016 RMK R09/VRB02KT ARP/VRB02KT
Conditions at: GCGM (LA GOMERA ARPT , ES) observed 0830 UTC 25 April 2017
Temperature: 19.0°C (66°F)
Dewpoint: 15.0°C (59°F) [RH = 78%]
Pressure (altimeter): 30.00 inches Hg (1016.0 mb)
Winds: variable direction winds at 2 MPH (2 knots; 1.0 m/s)
Visibility: 6 or more miles (10+ km)
Ceiling: at least 12,000 feet AGL
Clouds: scattered clouds at 2500 feet AGL
Weather: no significant weather observed at this time

METAR text: GCGM 250800Z 00000KT 9999 SCT027 19/14 Q1016 RMK R09/00000KT ARP/00000KT
Conditions at: GCGM (LA GOMERA ARPT , ES) observed 0800 UTC 25 April 2017
Temperature: 19.0°C (66°F)
Dewpoint: 14.0°C (57°F) [RH = 73%]
Pressure (altimeter): 30.00 inches Hg (1016.0 mb)
Winds: calm
Visibility: 6 or more miles (10+ km)
Ceiling: at least 12,000 feet AGL
Clouds: scattered clouds at 2700 feet AGL
Weather: no significant weather observed at this time

 MAPA DE AEROPUERTO

 INFORMACIÓN DE PISTA
Pista 09 Longitud 4921 ft Ancho 98 ft
Elevación 716 ft Umbral desplazado 0 ft Rumbo de pista 81
Pista 27 Longitud 4921 ft Ancho 98 ft
Elevación 712 ft Umbral desplazado 0 ft Rumbo de pista 261

 FRECUANCIAS DEL AEROPUERTO
Tipo GND Nombre GND Frecuencia 121.7 MHZ
Tipo TWR Nombre TWR Frecuencia 118.4 MHZ

 RADIO AYUDAS DEL AEROPUERTO
Tipo VOR-DME Nombre La Gomera Frecuencia 116000 KHZ



Nuestro objetivo, educar a través de la simulación aérea y las redes de vuelo on line la cultura aeronáutica y el conocimiento técnico y operativo de volar un avión comercial; Ayudar en la formación de personas y o profesionales de aquellos que desea llegar a ser piloto privado o de líneas aéreas, militar, controlador aéreo, o conocer el mundo del tráfico aéreo, la simulación aérea, el vuelo, y todo lo referente con la aeronáutica.

Copyright 2006 - 2015
Clickair-Va desde 2006 son marcas registradas con permiso de Vueling S.A
Patrocinado por ACAE
Los foros de Clickair VA son foros privados para los miembros de la VA

Powered by Virtual Airlines Manager